This demonstration page uses our WeatherBlox Daily Observations layout. Learn more.

Left ArrowRight Arrow

39.29038, -76.61219

Hourly Observations for January 1, 2021

Temp ( °F °C ) Dew Point ( °F °C ) Humidity (%) Winds ( mph kmh ) Pressure ( in mb ) Visibility ( mi km ) Precip ( " mm )
12:54 am 00:54 Partly Cloudy 36 2.2 26 -3.3 67 67 N 3 6 30.44 1031 10 16 0.00 0.00
1:54 am 01:54 Partly Cloudy 35 1.7 26 -3.3 70 70 N 6 9 30.45 1031 10 16 0.00 0.00
2:54 am 02:54 Partly Cloudy 34 1.1 25 -3.9 70 70 N 6 9 30.47 1032 10 16 0.00 0.00
3:54 am 03:54 Partly Cloudy 34 1.1 24 -4.4 67 67 NNE 3 6 30.47 1032 10 16 0.00 0.00
4:54 am 04:54 Partly Cloudy 33 0.6 23 -5 66 66 NE 5 7 30.47 1032 10 16 0.00 0.00
5:54 am 05:54 Partly Cloudy 32 0 23 -5 69 69 N 3 6 30.48 1032 10 16 0.00 0.00
6:54 am 06:54 Mostly Cloudy 31 -0.6 25 -3.9 79 79 Calm 30.50 1033 10 16 0.00 0.00
7:54 am 07:54 Cloudy 35 1.7 24 -4.4 64 64 Calm 30.50 1033 10 16 0.00 0.00
8:54 am 08:54 Cloudy 36 2.2 23 -5 59 59 NE 8 13 30.52 1033 10 16 0.00 0.00
9:54 am 09:54 Cloudy 36 2.2 24 -4.4 62 62 ENE 10 17 30.47 1032 10 16 0.00 0.00
10:27 am 10:27 Cloudy 36 2.2 24 -4.4 62 62 ENE 7 11 30.48 1032 10 16 0.00 0.00
10:54 am 10:54 Cloudy 36 2.2 25 -3.9 64 64 ENE 6 9 30.47 1032 10 16 0.00 0.00
11:54 am 11:54 Cloudy with Drizzle 36 2.2 28 -2.2 73 73 ENE 9 15 30.41 1030 9 14 0.00 0.00
12:19 pm 12:19 Cloudy with Light Rain 35 1.7 29 -1.7 78 78 E 10 17 30.38 1029 6 10 0.03 0.76
12:37 pm 12:37 Cloudy with Light Rain 35 1.7 29 -1.7 78 78 E 3 6 30.39 1029 9 14 0.05 1.27
12:54 pm 12:54 Cloudy with Light Rain 36 2.2 29 -1.7 76 76 ENE 6 9 30.38 1029 10 16 0.05 1.27
1:54 pm 13:54 Cloudy with Light Rain 36 2.2 31 -0.6 82 82 NE 12 19 30.30 1026 10 16 0.00 0.00
2:54 pm 14:54 Cloudy 36 2.2 31 -0.6 82 82 NE 10 17 30.31 1027 10 16 0.00 0.00
3:20 pm 15:20 Cloudy with Light Rain 37 2.8 31 -0.6 79 79 NE 9 15 30.32 1027 7 11 0.00 0.00
3:54 pm 15:54 Cloudy with Light Rain 36 2.2 32 0 86 86 NE 6 9 30.32 1027 4 6 0.03 0.76
4:54 pm 16:54 Cloudy with Rain 36 2.2 33 0.6 89 89 ENE 8 13 30.26 1025 4 6 0.12 3.05
5:37 pm 17:37 Cloudy with Rain 36 2.2 34 1.1 93 93 E 13 20 30.21 1023 4 6 0.13 3.30
5:54 pm 17:54 Cloudy with Light Rain 36 2.2 34 1.1 93 93 ENE 10 17 30.20 1023 5 8 0.16 4.06
6:54 pm 18:54 Cloudy with Rain 37 2.8 35 1.7 93 93 ENE 7 11 30.18 1022 4 6 0.20 5.08
7:36 pm 19:36 Cloudy with Rain 37 2.8 35 1.7 93 93 Calm 30.18 1022 2 3 0.12 3.05
7:54 pm 19:54 Cloudy with Rain 37 2.8 35 1.7 93 93 NW 3 6 30.16 1022 2 3 0.20 5.08
8:54 pm 20:54 Cloudy with Rain 38 3.3 36 2.2 93 93 VRB 3 6 30.14 1021 2 3 0.18 4.57
9:42 pm 21:42 Cloudy with Light Rain 38 3.3 36 2.2 93 93 E 14 22 30.05 1018 3 5 0.04 1.02
9:54 pm 21:54 Cloudy with Light Rain 38 3.3 36 2.2 93 93 E 13 20 30.00 1016 3 5 0.06 1.52
10:22 pm 22:22 Cloudy with Mist and Fog 38 3.3 37 2.8 97 97 NNE 5 7 29.98 1015 4 6 0.02 0.51
10:39 pm 22:39 Cloudy with Mist and Fog 38 3.3 35 1.7 89 89 WNW 7 11 30.01 1016 5 8 0.02 0.51
10:54 pm 22:54 Cloudy with Mist and Fog 38 3.3 36 2.2 93 93 NW 5 7 30.00 1016 6 10 0.02 0.51
11:54 pm 23:54 Cloudy with Light Rain 39 3.9 37 2.8 93 93 WNW 6 9 29.96 1014 3 5 0.00 0.00

Powered by AerisWeather